• In Hungary
  • List of Countries
  • For 7 days
  • Water Temperature
  • Satellite Maps
  • Weather Map
  • News
  • Weather Widgets
  • user-avatar
    Login

    Hourly Weather Stanislavka

    Today, 23 October, Monday

    Time Temperature Precipitation Wind Pressure Humidity
    00:00 +4°C° 0 mm 3 mps 749 mmHg 74%
    01:00 +4°C° 0 mm 3 mps 749 mmHg 74%
    02:00 +4°C° 0 mm 4 mps 749 mmHg 75%
    03:00 +4°C° 0 mm 4 mps 749 mmHg 76%
    04:00 +3°C° 0 mm 4 mps 748 mmHg 77%
    05:00 +3°C° 0 mm 4 mps 748 mmHg 78%
    06:00 +3°C° 0 mm 4 mps 748 mmHg 77%
    07:00 +3°C° 0 mm 5 mps 748 mmHg 76%
    08:00 +3°C° 0 mm 5 mps 747 mmHg 75%
    09:00 +4°C° 0 mm 6 mps 747 mmHg 72%
    10:00 +5°C° 0 mm 6 mps 747 mmHg 69%
    11:00 +8°C° 0 mm 6 mps 746 mmHg 65%
    12:00 +8°C° 0 mm 6 mps 746 mmHg 64%
    13:00 +9°C° 0 mm 6 mps 746 mmHg 63%
    14:00 +10°C° 0 mm 6 mps 746 mmHg 62%
    15:00 +9°C° 0.1 mm 6 mps 745 mmHg 65%
    16:00 +9°C° 0.1 mm 6 mps 745 mmHg 69%
    17:00 +8°C° 0.1 mm 5 mps 745 mmHg 73%
    18:00 +8°C° 0.2 mm 6 mps 745 mmHg 73%
    19:00 +8°C° 0.2 mm 6 mps 745 mmHg 73%
    20:00 +8°C° 0.2 mm 6 mps 745 mmHg 74%
    21:00 +7°C° 0.5 mm 6 mps 745 mmHg 75%
    22:00 +7°C° 0.5 mm 6 mps 745 mmHg 77%
    23:00 +6°C° 0.5 mm 7 mps 745 mmHg 78%

    Tomorrow, 24 October, Tuesday

    Time Temperature Precipitation Wind Pressure Humidity
    00:00 +7°C° 1.1 mm 6 mps 746 mmHg 79%
    01:00 +5°C° 1.1 mm 6 mps 746 mmHg 80%
    02:00 +5°C° 1.1 mm 6 mps 746 mmHg 82%
    03:00 +5°C° 0.7 mm 6 mps 746 mmHg 81%
    04:00 +5°C° 0.7 mm 6 mps 746 mmHg 80%
    05:00 +5°C° 0.7 mm 6 mps 746 mmHg 79%
    06:00 +5°C° 0.6 mm 6 mps 747 mmHg 78%
    07:00 +5°C° 0.6 mm 6 mps 747 mmHg 77%
    08:00 +4°C° 0.6 mm 7 mps 748 mmHg 75%
    09:00 +5°C° 0.2 mm 7 mps 748 mmHg 73%
    10:00 +5°C° 0.2 mm 7 mps 749 mmHg 72%
    11:00 +7°C° 0.2 mm 6 mps 749 mmHg 70%
    12:00 +7°C° 0.2 mm 6 mps 749 mmHg 69%
    13:00 +7°C° 0.2 mm 6 mps 750 mmHg 69%
    14:00 +7°C° 0.2 mm 6 mps 750 mmHg 69%
    15:00 +7°C° 0.1 mm 6 mps 750 mmHg 69%
    16:00 +5°C° 0.1 mm 6 mps 751 mmHg 70%
    17:00 +5°C° 0.1 mm 6 mps 751 mmHg 70%
    18:00 +5°C° 0 mm 6 mps 751 mmHg 70%
    19:00 +4°C° 0 mm 6 mps 752 mmHg 70%
    20:00 +5°C° 0 mm 5 mps 752 mmHg 70%
    21:00 +5°C° 0 mm 5 mps 753 mmHg 70%
    22:00 +5°C° 0 mm 5 mps 753 mmHg 70%
    23:00 +5°C° 0 mm 5 mps 753 mmHg 70%

    Day after tomorrow, 25 October, Wednesday

    Time Temperature Precipitation Wind Pressure Humidity
    00:00 +3°C° 0 mm 5 mps 753 mmHg 71%
    01:00 +3°C° 0 mm 5 mps 754 mmHg 72%
    02:00 +3°C° 0 mm 5 mps 754 mmHg 73%
    03:00 +3°C° 0 mm 5 mps 754 mmHg 74%
    04:00 +2°C° 0 mm 5 mps 754 mmHg 75%
    05:00 +2°C° 0 mm 5 mps 754 mmHg 75%
    06:00 +2°C° 0 mm 5 mps 755 mmHg 73%
    07:00 +2°C° 0 mm 5 mps 755 mmHg 71%
    08:00 +2°C° 0 mm 6 mps 756 mmHg 69%
    09:00 +3°C° 0 mm 5 mps 756 mmHg 64%
    10:00 +6°C° 0 mm 5 mps 756 mmHg 59%
    11:00 +7°C° 0 mm 5 mps 756 mmHg 54%
    12:00 +7°C° 0 mm 5 mps 756 mmHg 52%
    13:00 +8°C° 0 mm 5 mps 756 mmHg 50%
    14:00 +8°C° 0 mm 5 mps 756 mmHg 48%
    15:00 +8°C° 0 mm 4 mps 756 mmHg 50%
    16:00 +7°C° 0 mm 4 mps 756 mmHg 52%
    17:00 +7°C° 0 mm 3 mps 756 mmHg 54%
    18:00 +5°C° 0 mm 3 mps 756 mmHg 56%
    19:00 +5°C° 0 mm 3 mps 757 mmHg 58%
    20:00 +5°C° 0 mm 2 mps 757 mmHg 61%
    21:00 +5°C° 0 mm 2 mps 757 mmHg 62%
    22:00 +4°C° 0 mm 2 mps 757 mmHg 63%
    23:00 +5°C° 0 mm 1 mps 757 mmHg 64%

    26 October, Thursday

    Time Temperature Precipitation Wind Pressure Humidity
    00:00 +5°C° 0 mm 1 mps 757 mmHg 64%
    01:00 +4°C° 0 mm 1 mps 757 mmHg 65%
    02:00 +4°C° 0 mm 1 mps 757 mmHg 66%
    03:00 +4°C° 0 mm 1 mps 756 mmHg 67%
    04:00 +4°C° 0 mm 1 mps 756 mmHg 68%
    05:00 +4°C° 0 mm 1 mps 756 mmHg 69%
    06:00 +4°C° 0 mm 1 mps 756 mmHg 67%
    07:00 +5°C° 0 mm 1 mps 756 mmHg 66%
    08:00 +4°C° 0 mm 2 mps 756 mmHg 65%
    09:00 +5°C° 0 mm 2 mps 756 mmHg 62%
    10:00 +5°C° 0 mm 3 mps 756 mmHg 58%
    11:00 +6°C° 0 mm 4 mps 756 mmHg 55%
    12:00 +7°C° 0 mm 4 mps 755 mmHg 53%
    13:00 +10°C° 0 mm 4 mps 754 mmHg 51%
    14:00 +11°C° 0 mm 4 mps 754 mmHg 49%
    15:00 +10°C° 0 mm 4 mps 753 mmHg 52%
    16:00 +10°C° 0 mm 3 mps 753 mmHg 56%
    17:00 +10°C° 0 mm 3 mps 752 mmHg 59%
    18:00 +10°C° 0 mm 3 mps 752 mmHg 60%
    19:00 +10°C° 0 mm 3 mps 752 mmHg 62%
    20:00 +10°C° 0 mm 3 mps 752 mmHg 63%
    21:00 +10°C° 0 mm 3 mps 751 mmHg 65%
    22:00 +10°C° 0 mm 3 mps 751 mmHg 66%
    23:00 +10°C° 0 mm 3 mps 750 mmHg 68%

    27 October, Friday

    Time Temperature Precipitation Wind Pressure Humidity
    00:00 +10°C° 0 mm 3 mps 750 mmHg 71%
    01:00 +9°C° 0 mm 3 mps 749 mmHg 75%
    02:00 +9°C° 0 mm 3 mps 749 mmHg 78%
    03:00 +9°C° 0 mm 3 mps 749 mmHg 79%
    04:00 +9°C° 0 mm 2 mps 748 mmHg 80%
    05:00 +9°C° 0 mm 2 mps 748 mmHg 81%
    06:00 +9°C° 0.1 mm 2 mps 747 mmHg 82%
    07:00 +9°C° 0.1 mm 2 mps 747 mmHg 82%
    08:00 +10°C° 0.1 mm 2 mps 747 mmHg 83%
    09:00 +11°C° 0.1 mm 3 mps 746 mmHg 78%
    10:00 +12°C° 0.1 mm 3 mps 746 mmHg 73%
    11:00 +13°C° 0.1 mm 4 mps 745 mmHg 68%
    12:00 +14°C° 0 mm 4 mps 745 mmHg 65%
    13:00 +14°C° 0 mm 4 mps 744 mmHg 62%
    14:00 +15°C° 0 mm 4 mps 743 mmHg 59%
    15:00 +16°C° 0 mm 3 mps 742 mmHg 61%
    16:00 +14°C° 0 mm 3 mps 742 mmHg 62%
    17:00 +14°C° 0 mm 3 mps 741 mmHg 64%
    18:00 +14°C° 0 mm 3 mps 740 mmHg 65%
    19:00 +13°C° 0 mm 3 mps 740 mmHg 66%
    20:00 +13°C° 0 mm 4 mps 740 mmHg 66%
    21:00 +13°C° 0 mm 4 mps 739 mmHg 67%
    22:00 +12°C° 0 mm 3 mps 739 mmHg 68%
    23:00 +12°C° 0 mm 3 mps 738 mmHg 70%

    28 October, Saturday

    Time Temperature Precipitation Wind Pressure Humidity
    00:00 +11°C° 0.2 mm 4 mps 738 mmHg 74%
    01:00 +11°C° 0.2 mm 4 mps 738 mmHg 78%
    02:00 +10°C° 0.2 mm 4 mps 738 mmHg 82%
    03:00 +10°C° 0.6 mm 4 mps 738 mmHg 83%
    04:00 +8°C° 0.6 mm 5 mps 738 mmHg 83%
    05:00 +8°C° 0.6 mm 5 mps 738 mmHg 83%
    06:00 +8°C° 0.1 mm 5 mps 739 mmHg 82%
    07:00 +8°C° 0.1 mm 5 mps 739 mmHg 82%
    08:00 +8°C° 0.1 mm 5 mps 740 mmHg 81%
    09:00 +9°C° 0 mm 5 mps 740 mmHg 74%
    10:00 +10°C° 0 mm 5 mps 740 mmHg 68%
    11:00 +12°C° 0 mm 5 mps 740 mmHg 61%
    12:00 +12°C° 0 mm 5 mps 740 mmHg 60%
    13:00 +12°C° 0 mm 5 mps 740 mmHg 59%
    14:00 +13°C° 0 mm 5 mps 740 mmHg 57%
    15:00 +12°C° 0 mm 4 mps 740 mmHg 60%
    16:00 +11°C° 0 mm 3 mps 740 mmHg 63%
    17:00 +12°C° 0 mm 2 mps 740 mmHg 66%
    18:00 +11°C° 0 mm 1 mps 740 mmHg 68%
    19:00 +11°C° 0 mm 1 mps 741 mmHg 69%
    20:00 +10°C° 0 mm 1 mps 741 mmHg 70%
    21:00 +10°C° 0 mm 1 mps 741 mmHg 70%
    22:00 +10°C° 0 mm 1 mps 741 mmHg 71%
    23:00 +10°C° 0 mm 1 mps 741 mmHg 71%

    29 October, Sunday

    Time Temperature Precipitation Wind Pressure Humidity
    00:00 +10°C° 0.1 mm 1 mps 741 mmHg 72%
    01:00 +10°C° 0.1 mm 1 mps 741 mmHg 73%
    02:00 +10°C° 0.1 mm 1 mps 741 mmHg 74%
    03:00 +9°C° 0 mm 1 mps 741 mmHg 75%
    04:00 +9°C° 0 mm 1 mps 741 mmHg 76%
    05:00 +9°C° 0 mm 1 mps 741 mmHg 77%
    06:00 +9°C° 0 mm 1 mps 742 mmHg 76%
    07:00 +9°C° 0 mm 1 mps 742 mmHg 76%
    08:00 +9°C° 0 mm 1 mps 742 mmHg 75%
    09:00 +10°C° 0 mm 1 mps 742 mmHg 69%
    10:00 +11°C° 0 mm 1 mps 743 mmHg 63%
    11:00 +13°C° 0 mm 1 mps 743 mmHg 58%
    12:00 +13°C° 0 mm 1 mps 742 mmHg 55%
    13:00 +14°C° 0 mm 2 mps 742 mmHg 53%
    14:00 +14°C° 0 mm 2 mps 742 mmHg 51%
    15:00 +13°C° 0 mm 2 mps 742 mmHg 54%
    16:00 +12°C° 0 mm 2 mps 742 mmHg 58%
    17:00 +12°C° 0 mm 2 mps 742 mmHg 61%
    18:00 +10°C° 0 mm 2 mps 742 mmHg 64%
    19:00 +9°C° 0 mm 2 mps 742 mmHg 67%
    20:00 +9°C° 0 mm 3 mps 742 mmHg 70%
    21:00 +8°C° 0 mm 3 mps 742 mmHg 73%
    22:00 +8°C° 0 mm 3 mps 742 mmHg 77%
    23:00 +7°C° 0 mm 3 mps 742 mmHg 80%
    Show more